Location: Bartshausen
(51.8454°N, 9.8167°E)
Time: 10:11:01
(UTC+00:00)

Iridium 4 Rocket - Pass Details

Date: 16 February 2026
Orbit: 579 x 887 km, 86.9° (Epoch: 8 March)

Event Time Altitude Azimuth Distance (km) Brightness Sun altitude
Rises 19:45:31 0° 353° (N) 3,113 7.0 -29.4°
Reaches altitude 10° 19:47:56 10° 348° (NNW) 2,139 6.1 -29.8°
Enters shadow 19:51:14 39° 320° (NW) 991 4.4 -30.3°
